Terminal Aerodrome Forecast
Issued by NWS

Home | Current Version | Previous Version | Graphics & Text | Print | Product List | Glossary Off
Versions: 1 2 3 4 5 6 7 8 9 10 11 12 13 14 15 16 17 18 19 20 21 22 23 24 25 26 27

000
FTUS43 KDDC 161404 AAD
TAFHYS
TAF AMD
KHYS 161404Z 1614/1712 24006KT P6SM OVC006
     FM161500 36013G20KT P6SM BKN060
     FM170000 33010KT P6SM SCT200=

USA.gov is the U.S. government's official web portal to all federal, state and local government web resources and services.